Location: Grange Verzio
(44.5000°N, 6.9833°E)
Time: 18:58:03
(UTC+00:00)

Cosmos 2219 Rocket - Pass Details

Date: 28 September 2023
Orbit: 826 x 848 km, 71.0° (Epoch: 08 December)

Event Time Altitude Azimuth Distance (km) Brightness Sun altitude
Rises 02:45:16 0° 340° (NNW) 3,394 5.4 -28.4°
Reaches altitude 10° 02:47:54 10° 348° (NNW) 2,460 4.8 -28.0°
Maximum altitude 02:53:06 37° 55° (NE) 1,295 3.6 -27.2°
Drops below altitude 10° 02:58:18 10° 122° (ESE) 2,460 5.0 -26.3°
Sets 03:00:56 0° 131° (SE) 3,394 5.6 -25.9°
